GFSWCAN_sfc_rhum_024.txt.gz
RH
85 84 83 83 83 84 85 85 85 84 81 79 77 75 75 75 77 91 96 97 99 99 76 68 65 77 69 73 87 77 89 92 95 99 87 87 99 86 86 63 81 88 93 92 75 79 67 82 81 87 84 92 83 93
85 84 84 84 85 85 85 85 85 85 85 82 78 78 78 80 79 84 97 97 98 100 94 75 72 63 61 66 68 81 84 86 94 95 96 96 98 97 98 93 76 84 84 87 60 58 72 91 94 91 86 89 86 90
85 85 86 86 86 86 85 85 84 84 84 84 81 80 82 84 80 84 94 97 100 100 82 85 86 72 68 66 57 92 90 73 87 92 99 100 100 98 95 91 87 77 71 83 88 68 64 93 90 88 85 86 82 83
87 86 86 86 86 85 85 84 84 84 85 85 83 82 84 85 84 80 99 99 98 96 99 82 63 72 60 67 71 65 70 89 85 97 99 100 100 97 98 94 97 84 80 81 77 71 86 93 88 90 84 83 85 87
87 86 86 86 86 85 85 85 85 86 86 87 86 85 85 85 87 92 99 96 93 95 98 85 71 76 73 70 75 74 76 81 85 97 99 99 97 96 98 96 96 82 86 94 89 70 87 95 91 86 89 89 92 94
86 86 86 87 87 87 87 87 87 86 87 88 88 88 87 88 88 97 98 98 96 96 99 99 79 73 64 74 76 77 79 81 82 90 90 89 83 98 100 99 84 87 88 92 90 84 95 94 91 88 90 89 89 92
87 87 88 88 88 87 87 87 87 87 88 89 88 89 89 90 99 98 97 96 94 98 99 99 95 76 68 90 91 79 69 84 80 90 85 85 90 98 100 98 77 80 82 87 84 93 98 94 97 95 92 87 86 87
88 88 88 88 87 87 88 88 88 88 89 89 88 92 93 91 94 100 98 96 96 99 98 100 99 96 94 97 97 86 88 82 94 97 96 96 97 98 100 93 90 87 83 88 93 94 93 94 92 94 92 91 86 84
88 88 88 88 88 88 89 89 88 89 89 90 91 89 95 97 100 98 89 92 99 96 100 100 100 99 92 94 97 96 97 98 95 98 97 98 100 100 95 96 97 95 93 96 97 96 92 90 94 93 95 96 95 90
87 88 88 89 90 90 90 90 90 90 90 89 89 82 94 94 78 92 98 99 99 99 98 100 98 100 98 96 96 96 96 97 100 98 98 100 100 92 96 98 98 98 98 86 93 98 94 91 88 92 96 90 87 89
89 90 90 91 91 91 91 91 91 89 86 95 99 96 90 86 99 99 98 99 99 100 99 98 97 99 96 99 98 97 98 98 100 99 98 99 99 97 94 98 98 97 96 97 93 96 94 95 93 92 92 85 82 81
90 88 89 92 92 92 92 92 90 91 98 93 97 95 95 95 96 92 97 99 100 99 97 98 96 97 98 98 99 97 97 97 100 96 98 100 99 97 96 97 98 98 97 97 94 94 90 93 92 86 83 81 82 83
86 88 93 93 92 92 92 90 90 94 96 95 96 92 92 96 99 100 100 96 98 98 96 96 98 99 99 100 98 99 94 98 95 97 100 100 98 96 96 93 92 91 88 89 90 89 81 77 75 79 82 83 83 85
87 93 93 92 93 88 85 90 94 92 94 90 89 100 99 96 95 98 98 98 88 94 96 98 98 99 97 95 96 91 98 93 98 100 100 98 97 92 87 85 86 88 82 82 80 71 65 62 56 59 60 72 75 78
93 93 92 92 83 86 91 94 91 96 93 89 90 100 98 95 90 90 87 75 65 81 92 95 93 89 92 91 90 92 92 100 100 100 97 96 93 89 79 76 62 66 62 70 66 55 53 64 63 54 52 55 58 60
93 91 79 83 86 90 94 93 92 86 89 82 86 91 89 75 71 64 60 65 48 64 81 82 87 91 95 95 93 98 99 100 99 98 99 96 90 90 84 75 52 42 44 52 64 54 53 52 56 59 56 55 55 56
94 92 82 85 90 93 89 78 72 77 86 82 92 95 97 96 96 77 59 55 53 60 92 88 95 99 92 94 97 98 99 99 98 97 98 96 93 91 83 74 65 52 52 51 53 54 56 56 56 60 63 59 56 61
96 88 84 88 94 94 84 76 72 74 80 92 94 91 96 94 85 72 70 59 58 76 95 93 85 97 98 100 98 96 97 97 94 94 93 92 90 87 75 74 63 57 57 57 56 57 60 63 67 68 67 66 63 64
93 90 90 92 94 94 76 66 74 78 88 93 94 94 88 89 77 72 62 59 56 64 77 85 94 96 95 94 94 91 96 98 99 93 84 75 69 73 76 57 51 50 48 52 52 53 56 60 69 71 70 66 68 68
90 90 91 91 90 79 63 76 78 75 84 83 92 87 93 91 90 70 64 67 70 88 85 89 88 89 93 86 91 92 92 96 93 64 59 56 50 48 56 55 54 48 45 46 45 54 49 55 56 68 70 67 64 66
89 91 88 92 91 83 78 83 82 85 89 86 92 90 87 94 92 93 90 85 88 98 96 96 89 79 69 64 68 77 78 89 91 79 78 54 53 52 51 48 45 41 41 43 48 50 55 56 58 63 68 63 59 57
93 90 93 90 84 78 84 93 85 94 92 94 88 87 92 91 94 94 96 93 97 97 96 96 95 86 66 68 72 71 76 76 72 66 62 62 53 54 58 58 53 53 53 55 54 54 54 57 61 67 69 59 56 54
91 92 92 85 80 76 78 94 84 92 89 95 94 87 90 92 93 91 94 95 95 95 96 94 83 75 68 66 64 64 67 69 67 67 61 58 58 60 56 57 55 53 51 52 55 56 59 68 65 58 56 53 51 50
89 91 88 90 92 91 88 84 94 96 95 92 92 92 91 96 93 93 91 94 93 96 89 79 72 59 59 61 63 64 66 66 60 59 64 59 55 57 59 58 56 55 55 51 51 54 56 58 62 52 52 49 49 50
77 83 82 82 86 81 79 80 81 84 87 93 93 90 89 94 92 93 95 92 94 90 90 76 70 65 59 59 58 57 58 57 55 56 58 61 56 53 54 54 54 58 57 48 50 52 54 53 55 54 52 49 50 49
84 86 78 83 86 78 86 77 82 86 85 88 90 94 94 89 84 85 90 89 91 90 84 80 61 59 59 60 52 51 52 55 55 51 54 57 58 55 56 56 55 52 56 56 48 50 51 50 50 51 50 53 65 48
75 74 88 96 94 93 87 88 86 76 74 82 90 83 78 81 75 75 84 89 90 89 71 70 61 55 54 55 56 54 52 52 55 52 55 57 57 58 57 55 57 56 62 54 48 48 51 49 48 47 47 50 52 48
73 86 69 86 92 95 85 77 70 66 70 81 79 78 72 68 60 71 80 82 85 78 55 58 59 55 55 55 56 51 47 48 47 48 49 52 55 57 60 56 57 73 60 59 52 51 50 50 49 48 49 50 51 51
79 89 85 79 86 88 85 66 63 71 72 83 75 79 80 84 80 79 82 74 52 44 45 54 59 59 58 57 55 53 51 48 46 52 56 59 59 55 58 58 56 56 56 48 68 68 55 52 50 49 49 50 53 55
81 89 76 76 73 66 63 66 62 72 78 78 75 82 82 81 82 85 69 50 50 41 43 50 56 54 55 53 53 54 53 53 51 50 55 56 54 54 60 58 58 59 59 50 48 49 68 56 59 53 56 58 62 65
88 88 76 76 73 73 79 90 92 88 79 73 81 72 71 81 80 73 56 50 49 52 51 52 54 55 56 56 56 54 51 50 54 51 52 53 54 56 56 57 58 58 58 54 52 52 52 55 57 59 60 62 65 68
81 78 73 67 72 82 76 75 80 81 86 81 83 90 88 88 88 82 62 48 50 50 57 54 50 50 52 53 56 55 63 49 50 49 50 52 53 53 53 55 56 54 56 56 56 55 55 58 60 63 65 66 66 67
58 63 69 75 78 71 76 77 80 80 85 82 82 86 85 78 85 82 63 52 45 44 50 51 49 50 53 57 55 54 62 51 56 66 69 69 68 66 55 53 54 53 54 57 58 57 59 61 64 65 65 66 66 66

GFSWCAN_sfc_rhum_027.txt.gz
RH
86 84 84 84 83 83 84 85 85 84 83 79 78 77 77 79 88 96 97 94 96 98 84 69 65 70 70 74 83 60 67 74 82 93 69 59 66 47 61 38 42 52 67 65 51 44 40 23 30 33 48 63 65 64
84 84 83 86 85 85 85 85 85 84 85 84 80 79 80 83 88 91 100 95 94 100 91 62 58 54 53 52 62 68 66 70 83 92 91 97 89 76 72 74 45 60 48 54 48 37 38 36 52 60 69 71 69 74
87 86 86 86 86 85 85 85 86 86 86 86 82 82 83 87 89 93 100 99 100 100 86 69 64 48 51 58 51 86 84 66 65 67 92 97 98 79 83 69 62 56 52 62 53 40 42 37 39 36 61 71 69 70
86 85 85 85 86 86 86 87 87 87 87 87 82 84 85 86 91 90 100 99 99 98 100 71 46 56 46 48 58 54 55 62 71 94 100 100 100 85 89 67 73 52 56 58 59 53 51 50 46 47 47 68 71 71
85 86 86 87 87 87 87 88 88 87 88 88 84 86 86 87 93 95 99 99 97 98 96 81 62 52 49 55 62 62 62 66 75 98 100 99 95 92 92 89 91 65 65 79 64 50 55 59 42 46 67 66 74 81
87 87 87 87 88 88 88 88 88 88 88 88 87 87 87 88 93 96 93 93 97 99 99 99 60 64 54 62 66 69 70 79 97 98 96 84 71 96 100 99 61 59 66 66 74 59 63 63 64 63 71 72 72 76
87 87 87 87 87 88 88 88 89 89 89 87 89 90 87 91 98 98 96 95 95 97 98 99 87 61 61 72 72 68 70 81 91 98 99 95 94 98 100 97 74 73 79 74 79 75 73 74 69 80 80 76 86 81
87 87 87 86 87 88 89 90 90 90 88 87 89 92 94 94 94 99 99 94 96 98 97 99 92 83 78 86 87 65 82 87 97 98 97 99 98 99 100 89 83 83 82 78 73 66 73 75 86 90 86 85 82 78
87 88 88 89 88 88 87 89 90 90 91 89 88 89 80 92 99 99 86 91 99 96 99 99 100 97 80 93 96 96 95 99 96 100 98 98 100 100 94 92 95 89 88 80 74 74 74 85 90 96 92 89 76 74
89 88 86 86 87 87 88 88 90 92 92 84 80 67 88 86 85 88 98 98 97 98 98 100 97 99 98 94 96 97 96 98 100 97 97 100 100 96 97 97 97 89 84 88 89 90 96 96 99 94 95 83 75 73
87 84 85 86 88 90 91 92 92 92 84 73 83 83 78 83 99 99 98 98 98 100 99 98 97 99 96 99 98 98 98 98 100 98 99 100 99 98 94 96 96 97 94 96 93 98 94 91 94 93 93 90 80 75
84 85 86 89 90 93 92 89 90 88 88 93 94 93 85 90 93 90 97 98 100 99 97 97 93 97 97 98 99 97 97 97 100 95 96 100 98 96 95 95 96 95 93 94 92 95 95 96 94 94 96 93 90 87
85 85 91 92 93 92 86 90 94 91 90 83 87 80 92 90 98 100 100 96 98 93 93 95 97 97 94 96 97 96 92 98 92 96 100 100 96 92 93 89 88 88 86 91 90 88 89 92 90 92 94 93 92 90
86 90 93 93 93 85 91 93 94 88 76 79 86 99 96 97 96 95 96 92 79 86 84 94 92 92 90 85 83 89 93 83 94 100 100 96 94 89 82 75 81 80 81 84 90 90 89 86 83 79 79 79 78 73
91 93 93 84 84 90 92 93 89 74 68 84 85 100 85 79 83 84 82 58 51 55 76 89 84 73 80 81 87 90 88 100 100 100 95 95 91 84 78 69 62 61 60 70 71 64 73 90 86 77 75 73 69 71
93 89 67 83 88 91 93 82 67 64 78 72 75 78 74 59 55 53 53 51 42 56 60 58 71 78 90 95 91 97 98 100 99 96 95 92 88 83 78 64 61 58 59 60 61 58 58 60 62 65 61 62 64 70
92 65 81 86 91 92 86 60 59 66 69 69 69 75 84 74 69 56 51 49 46 47 67 66 85 99 89 96 99 99 100 99 96 92 93 84 82 79 69 64 60 58 62 60 61 65 61 57 57 60 65 64 60 62
74 68 84 90 91 84 60 60 57 59 64 71 71 66 73 67 62 54 53 49 46 52 57 75 62 76 93 97 98 91 97 98 90 85 65 75 75 71 60 56 60 61 62 62 62 60 62 61 60 60 59 58 54 55
80 83 90 93 88 74 58 58 60 63 66 61 71 63 55 63 57 52 48 50 47 50 51 53 58 67 72 80 78 74 82 87 81 64 52 58 58 59 56 49 48 50 50 55 54 50 53 60 56 51 48 49 50 49
91 89 91 88 82 59 56 66 62 57 58 58 77 57 59 57 55 46 47 48 46 43 47 53 54 60 59 55 67 72 67 71 67 46 45 44 44 49 54 46 39 40 34 39 35 51 46 46 47 45 45 47 44 47
78 77 84 78 69 64 61 61 63 63 62 65 83 72 72 62 56 53 53 51 46 60 59 71 48 47 56 55 54 53 52 54 53 48 49 41 41 38 35 34 34 31 31 31 32 35 46 51 50 42 42 41 38 36
74 87 73 74 65 63 68 72 66 74 70 78 72 69 64 63 64 63 63 55 72 81 82 69 68 50 48 58 56 58 61 56 54 41 50 46 38 36 36 33 31 30 31 34 37 40 48 49 42 38 36 36 39 36
86 81 72 68 63 77 88 81 73 79 73 78 76 67 76 75 74 63 72 74 76 78 71 66 67 60 56 55 55 54 57 54 41 40 39 36 37 37 34 34 31 32 32 37 39 44 46 56 44 36 36 34 32 32
85 77 74 73 75 81 74 72 76 80 79 76 78 74 78 85 77 67 71 62 62 62 57 65 51 41 42 53 40 42 44 40 36 37 40 36 33 36 37 35 32 31 34 33 33 36 35 35 45 31 31 31 32 32
82 84 79 99 72 67 63 65 68 67 74 76 77 74 80 81 70 69 68 55 64 58 57 54 46 42 36 36 36 36 44 35 34 36 38 38 35 31 32 31 32 35 32 29 31 31 34 32 32 32 32 32 35 35
89 74 87 64 71 63 70 62 67 70 66 72 74 80 78 73 53 52 58 55 58 54 54 49 46 38 36 36 34 32 33 34 35 33 38 37 36 35 35 35 32 31 35 36 34 32 33 33 33 36 34 38 58 35
70 61 77 86 80 77 70 64 64 56 59 62 68 69 62 53 47 45 51 57 53 55 57 41 41 35 33 32 34 34 31 33 39 37 37 36 36 37 37 38 40 38 40 37 34 33 32 32 32 32 33 34 34 35
62 74 60 72 79 70 69 61 54 48 47 57 59 59 51 46 38 40 46 54 54 56 39 38 37 31 30 33 32 30 30 29 32 33 32 33 34 34 39 35 36 69 41 37 34 32 32 32 32 33 34 35 37 39
66 66 64 64 67 68 67 56 41 40 44 53 52 43 48 51 47 45 53 54 43 36 34 38 39 35 35 34 33 30 30 29 35 40 40 38 37 36 36 36 36 36 34 30 75 59 43 35 35 34 37 38 41 44
62 59 57 58 59 54 47 48 46 43 47 48 47 56 57 62 55 57 53 43 39 35 32 34 34 33 32 32 32 33 30 29 30 34 38 39 38 35 37 37 37 36 35 33 31 35 66 43 48 37 40 40 43 47
64 70 60 57 56 54 62 64 72 71 66 57 59 58 70 76 76 79 74 54 37 34 33 33 33 33 33 33 35 36 33 31 34 36 34 32 32 35 36 38 36 36 38 37 36 36 37 39 41 44 46 49 50 50
63 64 59 57 54 63 63 53 53 63 68 66 67 73 75 77 79 89 74 43 37 35 47 36 30 30 32 31 34 35 61 30 32 32 38 34 35 36 35 34 34 35 38 39 39 40 43 45 45 48 47 48 49 50
52 52 56 53 58 60 59 63 63 65 64 60 62 65 63 58 67 79 60 41 34 29 32 32 30 32 39 36 39 38 55 35 44 66 70 71 79 64 42 34 35 38 40 41 42 42 46 49 48 50 49 49 50 51

GFSWCAN_sfc_rhum_030.txt.gz
RH
86 86 85 85 84 84 84 84 84 85 84 82 81 78 81 81 84 97 99 97 98 98 70 56 49 62 61 66 76 52 54 46 50 84 45 37 32 25 27 24 24 30 32 28 28 30 29 13 14 23 37 39 37 39
85 85 85 84 84 84 85 85 86 86 86 84 80 82 83 85 88 92 100 98 97 99 81 54 52 47 50 52 63 78 59 57 55 75 78 67 70 59 52 44 26 33 26 26 24 23 25 21 19 21 29 35 35 44
84 84 84 84 85 85 86 86 86 87 87 84 82 82 84 86 86 92 100 99 99 99 87 71 47 36 34 40 40 77 67 54 49 40 67 75 86 36 52 36 37 33 28 34 34 28 28 26 25 26 24 27 30 31
85 85 85 86 86 87 87 87 87 87 87 84 83 85 85 87 87 88 99 99 98 97 99 56 36 42 36 36 41 44 48 49 49 85 98 99 85 46 64 41 43 33 35 42 44 38 33 26 24 24 27 27 25 26
87 87 87 87 87 87 87 87 87 86 84 84 86 87 86 86 89 92 98 97 96 98 97 76 56 40 36 42 45 48 53 57 68 97 100 99 86 77 53 53 54 39 43 42 41 36 39 41 31 30 28 34 31 37
88 87 86 86 87 87 87 88 85 84 84 87 88 87 87 86 90 72 68 81 95 97 99 90 41 50 45 52 59 62 56 66 97 99 99 96 71 95 100 89 46 38 39 38 44 39 37 37 39 38 45 44 38 39
86 86 87 88 85 86 88 89 88 88 89 89 90 90 90 90 82 84 84 85 92 95 98 97 62 45 54 60 84 81 79 92 96 99 100 98 96 98 100 98 77 77 80 72 55 53 63 50 56 47 45 44 47 48
86 88 87 87 85 88 86 85 89 88 89 90 89 93 94 91 93 96 92 93 91 96 95 98 79 65 72 92 96 95 96 98 98 99 98 100 99 99 100 86 81 82 80 85 81 70 60 56 55 57 52 54 60 75
87 89 83 86 86 88 85 90 88 90 92 91 90 89 65 81 94 96 88 87 95 97 98 98 99 99 85 92 95 98 96 99 97 100 100 99 100 100 100 98 97 74 79 82 77 76 70 63 61 62 70 63 89 93
89 82 84 85 85 86 88 91 91 92 92 88 78 55 71 76 86 88 97 95 94 96 96 100 97 99 95 93 94 96 95 98 100 97 97 100 100 95 95 96 98 89 77 64 70 75 70 68 66 68 66 88 89 93
85 84 85 88 89 91 93 93 91 93 88 56 52 59 64 86 97 95 94 97 96 98 97 94 94 97 89 98 97 95 97 97 100 90 91 100 100 98 91 93 96 96 94 94 78 74 77 89 86 90 94 93 96 97
85 87 89 89 93 93 92 91 94 66 61 73 69 74 64 71 71 80 91 96 100 98 86 96 92 93 93 95 99 93 95 86 92 75 77 100 94 90 92 93 94 94 93 94 93 95 95 95 95 95 93 95 95 93
86 89 90 93 94 90 91 94 91 88 82 72 73 63 62 76 98 100 100 97 95 74 73 82 92 88 79 90 83 76 70 88 64 89 100 87 82 77 85 86 86 85 88 92 92 90 90 92 92 92 94 95 92 90
90 90 93 92 90 90 92 93 90 82 58 70 70 98 76 89 91 90 83 79 57 52 48 61 69 78 67 72 75 85 82 61 85 100 99 75 67 65 69 65 73 79 78 80 86 89 88 87 90 89 90 90 88 88
93 92 92 79 87 91 92 90 86 49 42 57 63 94 71 60 52 44 40 40 39 40 45 45 46 39 55 72 75 83 76 100 99 96 91 69 64 62 63 59 55 56 57 60 56 57 67 75 77 80 77 83 84 82
92 89 59 82 90 92 92 65 43 38 47 45 51 53 46 41 37 35 38 38 35 36 42 40 53 62 54 72 94 98 98 100 95 89 61 53 67 61 60 56 53 52 54 51 53 53 56 58 61 64 63 66 63 65
96 46 85 88 92 91 80 40 38 45 45 48 44 37 40 42 40 35 33 34 32 35 44 44 68 76 48 61 95 97 100 98 93 61 50 64 69 62 56 55 52 49 52 49 49 49 47 44 47 50 58 59 56 58
51 52 81 88 87 63 40 38 38 39 47 42 46 42 35 34 36 34 32 31 35 39 41 48 38 49 57 61 70 61 64 74 60 50 51 55 62 61 52 53 51 48 47 48 48 46 48 45 43 39 45 45 42 45
68 73 87 93 83 56 40 43 40 44 40 38 40 38 37 34 32 31 31 31 29 29 32 34 45 47 43 39 43 44 46 46 53 44 45 52 54 55 49 42 40 40 39 39 37 35 39 48 41 36 34 35 36 35
93 89 89 88 80 41 44 48 44 40 41 41 42 42 42 40 32 31 31 30 29 32 38 39 40 37 35 35 35 37 38 40 39 44 41 39 35 38 42 36 30 32 26 29 26 41 32 35 35 35 34 36 35 35
74 64 77 68 48 44 43 43 44 44 39 42 47 50 44 39 37 36 35 31 35 38 41 38 35 33 44 43 38 34 37 38 35 35 37 34 31 30 29 27 28 24 24 24 26 30 39 35 34 32 32 31 30 29
55 84 56 56 46 50 50 51 48 49 48 46 46 47 43 43 41 37 36 39 42 41 40 38 37 34 34 46 44 46 49 45 41 32 44 37 29 29 28 26 25 24 25 27 30 32 33 32 30 30 30 29 32 27
80 69 52 50 52 68 74 53 59 57 59 53 49 49 52 51 48 43 38 40 43 38 38 37 47 49 45 43 43 40 41 40 28 29 29 27 26 29 26 26 24 26 26 27 27 29 30 48 33 27 26 26 26 25
88 61 58 54 55 71 58 56 52 58 57 55 58 58 56 54 48 40 38 35 35 37 37 53 39 33 32 48 28 30 32 27 26 26 28 27 26 26 27 25 24 23 25 24 24 25 25 25 38 24 25 26 26 26
79 74 66 99 54 52 47 49 50 46 53 55 59 54 56 56 46 41 36 31 30 32 35 38 33 31 29 26 25 27 36 26 28 29 27 26 26 24 24 23 23 25 24 25 25 25 26 25 26 28 28 29 31 30
89 58 80 47 50 47 46 39 40 42 43 50 52 51 49 50 39 35 31 30 32 31 32 32 31 29 26 27 26 25 27 26 28 26 27 26 27 27 28 28 27 26 26 26 26 27 27 27 27 30 27 32 53 32
66 49 50 54 51 51 46 39 39 35 41 41 39 47 42 38 32 29 30 32 31 30 37 30 28 28 28 26 27 27 25 26 31 29 28 27 26 27 28 30 32 30 28 26 25 26 27 27 27 27 27 27 29 30
45 52 48 50 54 44 48 44 36 33 28 32 36 42 37 33 33 26 27 29 31 36 31 27 26 24 24 24 23 23 23 22 26 26 24 25 24 25 30 26 27 63 33 28 27 26 27 27 28 29 30 30 31 31
52 43 42 51 46 45 46 41 32 25 25 28 36 33 31 30 29 28 43 33 32 31 31 29 28 26 25 25 25 23 23 22 28 35 36 30 29 28 27 27 26 26 25 25 78 50 38 31 32 31 33 33 34 40
43 40 42 42 44 40 34 30 32 27 27 27 31 35 33 34 35 41 38 41 41 38 33 26 26 26 24 24 24 26 23 21 23 27 31 32 31 27 29 29 29 27 27 26 26 30 60 42 46 36 38 36 36 42
39 42 45 40 37 33 37 36 40 39 38 34 34 38 37 44 50 44 45 48 43 33 28 26 25 24 24 25 26 26 23 24 28 30 28 26 26 29 30 31 29 29 30 31 32 33 36 38 38 42 43 44 45 44
42 46 43 43 33 38 44 39 36 39 40 44 40 41 43 48 55 57 47 36 35 32 42 30 25 27 26 24 24 25 63 23 26 26 32 28 29 31 30 28 28 30 34 35 36 37 39 42 44 45 46 47 46 47
35 34 40 36 37 43 37 42 44 46 42 40 44 45 42 43 58 53 38 31 29 24 26 25 25 27 33 29 30 28 47 26 45 61 58 69 76 60 36 28 30 32 35 38 39 41 44 48 48 50 48 48 48 49

GFSWCAN_sfc_rhum_033.txt.gz
RH
85 84 83 82 82 83 84 85 85 85 86 83 80 82 82 81 83 95 98 96 98 98 83 65 58 72 59 55 75 48 43 36 33 65 48 45 26 24 20 21 23 30 27 24 26 31 34 15 14 23 33 33 34 37
84 83 83 83 84 84 85 85 86 86 84 81 82 83 83 83 86 89 99 95 96 99 82 50 50 48 48 49 58 73 47 48 45 71 75 54 50 33 37 34 19 24 22 22 21 21 24 19 21 17 17 27 28 29
84 84 85 85 86 86 85 86 86 82 81 83 84 84 84 86 87 90 99 99 99 99 90 75 53 44 38 39 36 78 58 47 46 35 46 71 80 34 41 30 30 27 23 22 26 24 23 20 17 16 17 22 23 22
86 86 86 86 86 86 86 85 84 86 87 85 85 84 85 87 88 87 98 95 98 96 99 63 34 40 32 36 37 40 48 48 53 50 85 79 65 41 53 39 40 33 32 33 31 26 26 25 23 21 20 22 21 20
87 87 86 86 86 85 88 88 88 88 87 86 85 86 87 87 89 78 93 86 88 97 96 71 55 39 36 38 42 46 52 76 90 96 98 98 83 77 50 44 43 31 36 37 37 33 33 34 27 26 26 24 24 25
87 86 86 87 89 89 88 88 87 86 87 88 87 87 86 84 91 74 81 71 75 92 99 92 39 56 57 57 64 74 87 92 96 98 98 96 75 97 100 90 47 50 51 50 50 37 32 32 33 28 29 27 24 28
85 86 86 88 89 88 85 85 86 87 89 90 90 90 84 86 64 65 72 63 81 85 95 92 74 61 63 78 92 93 91 96 97 100 100 98 97 98 100 99 70 71 76 74 59 57 63 45 40 32 32 27 34 30
87 88 90 86 84 88 85 85 89 90 90 90 90 90 90 89 84 93 67 81 77 85 87 99 83 83 84 92 97 95 97 97 98 99 99 100 99 100 100 89 90 89 82 79 80 65 52 46 54 48 39 38 38 35
88 86 86 83 88 88 89 90 92 92 92 88 90 88 63 62 83 94 83 82 78 88 98 98 99 98 76 86 93 97 96 99 95 100 100 100 100 100 100 99 96 91 85 64 71 71 66 63 55 51 48 55 57 46
89 85 87 86 89 90 91 92 93 92 90 86 72 67 76 67 82 82 93 86 86 92 94 99 91 97 89 89 91 96 96 96 100 95 95 100 100 93 94 95 96 97 77 54 68 77 73 72 61 54 53 53 62 55
90 88 89 90 91 92 94 93 92 91 86 59 52 55 56 83 90 82 73 90 88 95 78 82 90 96 80 96 95 90 91 94 97 75 68 97 100 95 90 91 93 95 94 94 93 84 64 67 66 64 71 77 82 68
92 90 91 91 92 93 93 93 93 72 49 66 57 54 55 70 62 62 76 85 98 92 70 75 77 88 79 84 96 81 70 57 73 44 69 100 95 84 84 82 88 94 93 94 95 96 95 94 94 94 95 93 94 94
93 93 93 93 93 92 92 94 90 88 80 55 52 49 50 58 90 98 100 94 88 63 56 57 68 58 70 88 76 55 53 63 39 79 100 92 77 66 71 69 69 69 76 89 91 91 90 90 91 95 96 92 91 94
93 93 93 93 91 91 93 91 88 78 60 40 50 98 58 63 52 69 64 48 39 40 39 54 44 55 42 56 50 66 56 48 71 100 99 80 68 66 57 54 58 59 55 58 70 86 86 89 94 93 93 92 91 94
93 92 92 82 88 90 92 89 88 59 33 42 42 84 54 32 30 32 28 31 31 30 35 43 37 30 38 54 50 63 62 94 96 94 76 61 67 61 63 50 54 48 45 46 47 51 64 79 82 81 78 80 82 80
92 89 60 85 87 90 90 64 48 30 33 34 34 35 29 27 24 23 26 28 26 27 38 41 42 45 40 41 62 92 98 100 98 92 56 51 66 62 61 51 50 47 49 42 47 47 46 49 52 61 54 52 52 58
96 39 87 87 89 90 81 36 30 36 36 36 31 25 25 27 27 26 26 26 26 29 34 36 49 55 40 47 70 70 91 86 86 68 43 59 68 68 57 46 42 40 42 40 42 45 43 42 43 44 54 55 49 51
45 42 82 89 85 59 32 30 31 33 39 32 34 32 28 26 27 26 24 25 26 31 32 37 31 39 48 58 60 46 43 43 73 51 42 53 58 54 44 44 41 38 37 37 35 36 42 40 38 35 42 39 36 39
62 71 88 94 82 57 33 33 33 36 33 30 29 28 29 27 27 25 24 24 25 25 27 29 36 36 37 35 35 33 32 31 33 49 42 45 47 45 44 38 35 33 32 33 32 25 29 38 33 29 28 30 30 30
95 94 91 88 81 38 37 38 34 34 33 33 30 37 35 30 26 26 25 25 25 26 32 33 32 31 31 33 30 29 30 30 29 30 33 28 27 33 35 31 25 27 22 27 26 40 26 27 26 27 28 29 28 29
81 59 73 63 38 35 34 33 34 34 32 32 31 45 39 27 26 27 29 26 28 30 32 30 28 30 39 37 32 31 33 34 33 30 29 25 24 23 24 23 23 20 21 23 25 28 32 28 26 25 25 25 24 23
45 82 48 47 38 40 38 36 37 38 36 33 32 31 33 34 31 30 30 30 33 32 31 31 32 30 30 42 39 40 42 42 36 28 43 32 24 25 25 22 22 22 22 24 25 26 26 25 25 23 23 23 25 22
78 65 44 40 44 61 62 38 44 40 43 38 34 35 35 36 35 33 30 30 31 30 31 32 42 45 42 37 39 36 37 37 25 24 24 23 21 23 22 22 20 23 23 23 22 22 23 40 28 22 22 23 23 22
87 52 49 41 42 60 40 41 35 38 39 38 38 42 38 38 36 32 30 28 28 29 31 45 33 28 29 45 26 25 29 24 22 22 23 23 22 22 22 21 20 20 22 21 20 21 22 23 36 23 24 24 24 24
76 66 61 99 42 38 34 32 33 32 36 36 39 37 36 37 36 31 31 26 25 26 29 30 26 25 25 25 21 21 32 22 23 25 23 22 22 21 21 20 20 22 21 22 22 22 23 22 23 24 24 26 28 27
86 43 74 33 35 36 32 34 30 30 29 34 34 33 35 37 36 32 27 26 27 27 27 28 28 26 26 24 23 22 22 21 24 23 24 22 23 24 25 25 24 24 22 22 22 23 24 24 24 26 23 29 52 29
60 35 33 33 34 35 34 28 28 28 30 32 29 33 36 41 33 29 26 28 29 28 31 29 28 28 28 26 24 23 21 22 29 27 24 24 22 23 25 26 29 28 24 23 24 24 25 25 24 24 25 25 28 28
34 35 38 34 35 30 36 33 30 30 26 23 27 36 41 33 35 27 26 28 33 30 31 27 26 25 26 26 22 20 19 18 22 22 20 21 21 21 26 22 24 55 26 25 24 23 27 27 28 27 29 31 32 35
38 31 28 35 34 33 33 34 30 28 22 20 27 28 28 27 26 26 27 27 26 28 30 29 25 22 26 23 22 20 19 18 23 29 31 26 24 24 23 23 23 22 22 25 65 44 32 28 31 30 32 32 34 37
36 25 29 32 34 33 42 31 23 20 20 21 23 24 25 27 29 30 29 30 35 39 42 32 27 24 26 23 21 21 18 18 19 23 27 28 25 23 25 26 26 26 26 26 26 29 59 38 44 33 36 33 34 34
23 25 30 29 31 27 23 20 20 23 27 26 22 27 26 32 38 43 38 40 37 35 30 27 23 21 22 22 22 22 18 20 26 27 27 23 23 26 28 28 26 26 30 31 32 32 33 34 35 37 40 42 42 43
29 31 29 30 27 25 24 23 21 24 24 28 26 27 30 39 61 56 37 31 30 28 43 30 23 24 23 19 19 20 54 21 22 23 29 26 26 29 26 27 26 28 31 33 35 35 35 38 39 41 41 42 41 41
26 22 24 24 26 26 25 25 28 32 28 28 32 36 31 36 54 42 32 29 27 24 23 22 21 24 29 25 26 24 45 28 45 69 67 71 75 56 34 26 28 28 30 33 33 36 42 44 44 45 43 43 44 44

GFSWCAN_sfc_rhum_036.txt.gz
RH
86 85 84 83 83 84 84 85 86 86 84 81 83 82 82 82 83 94 98 97 98 99 84 68 64 82 78 75 90 56 46 72 53 73 63 89 58 55 31 24 32 26 30 32 30 36 40 22 18 35 46 38 31 32
86 85 85 85 85 85 85 85 86 86 86 84 83 83 84 84 86 89 99 96 95 99 79 65 69 66 68 59 78 72 56 53 54 84 83 54 56 38 37 34 22 30 30 29 26 26 32 23 23 20 18 23 32 30
86 86 86 86 86 85 85 86 85 87 85 84 84 84 84 86 87 90 98 99 99 99 92 77 65 51 48 48 40 87 51 45 44 42 46 56 70 39 50 37 39 31 34 34 29 25 26 22 18 18 19 21 20 22
86 86 85 85 86 86 87 87 88 88 86 85 84 85 86 87 88 86 96 92 97 97 99 59 45 60 45 43 50 47 51 44 47 60 81 79 69 46 53 44 41 33 34 37 36 35 33 26 22 22 20 22 21 20
87 86 86 86 86 88 87 88 88 86 86 86 87 87 86 85 86 78 72 69 70 95 96 74 65 67 62 56 56 57 58 81 94 97 98 95 81 76 55 46 45 34 42 45 44 40 47 46 30 26 26 24 25 25
86 86 86 85 89 88 88 82 85 87 87 89 88 88 87 83 88 74 94 70 71 87 99 95 54 76 72 74 80 83 92 94 98 98 99 96 85 96 100 83 51 52 50 50 57 50 46 46 43 35 35 30 27 28
85 87 88 89 88 84 85 87 85 88 90 90 90 89 79 82 60 61 73 72 76 72 94 90 77 71 73 78 92 94 92 98 98 99 100 100 98 98 100 99 83 86 85 85 75 71 73 56 51 40 38 31 31 27
87 88 89 89 86 88 89 88 90 92 91 90 87 86 85 89 86 82 58 77 68 76 82 93 75 73 77 85 94 91 96 97 98 99 99 100 99 100 100 95 92 91 88 80 77 72 69 58 51 46 39 35 38 30
88 90 89 88 89 89 88 91 93 93 92 86 86 85 68 73 68 68 79 77 60 68 91 91 98 93 70 89 95 96 95 99 96 100 100 99 100 100 100 99 94 94 94 85 58 73 66 72 63 48 43 42 46 38
89 91 92 92 91 92 92 93 94 92 88 85 75 66 78 59 81 75 90 92 86 71 71 89 78 92 79 83 87 95 96 90 99 88 96 100 100 90 90 93 91 92 93 90 77 71 76 72 59 49 46 43 43 40
91 92 92 93 93 93 93 94 92 89 86 62 68 50 60 81 72 81 78 72 64 87 70 61 66 85 63 85 84 77 82 82 92 64 68 97 100 91 79 85 89 88 89 89 94 91 74 69 61 54 52 51 50 56
92 92 93 93 93 93 93 93 92 78 44 60 51 51 54 66 58 55 64 69 85 83 51 56 74 74 60 68 95 76 73 50 56 50 92 100 96 83 73 71 82 85 86 89 91 92 92 93 92 93 96 90 93 92
92 92 93 93 93 92 91 92 90 88 84 49 53 55 45 46 81 93 100 70 74 53 45 43 85 93 62 58 82 60 45 63 35 70 100 92 88 75 72 61 60 65 75 82 91 90 91 92 92 95 96 94 92 94
92 93 93 93 93 90 90 91 84 78 67 38 42 97 47 46 37 36 37 41 36 34 41 45 67 78 48 51 42 59 54 42 59 100 94 79 80 78 69 55 52 54 56 62 80 91 92 90 91 92 93 93 91 95
92 92 93 86 88 88 89 90 87 61 40 38 35 76 39 24 21 21 21 24 25 26 36 63 47 34 37 44 41 51 60 92 97 96 77 52 71 74 70 53 48 46 44 50 51 55 75 81 88 91 91 90 88 90
92 90 60 88 87 86 88 74 70 37 30 29 28 29 24 24 23 22 24 25 22 24 27 33 36 46 45 45 48 62 80 98 86 88 86 51 76 74 60 56 46 43 45 40 49 48 52 60 65 70 72 79 83 84
97 43 89 87 89 88 81 44 29 32 31 30 28 24 25 26 28 25 23 24 23 26 31 28 38 47 39 50 62 57 67 66 66 56 74 71 66 75 64 53 41 38 42 42 43 50 49 52 50 55 58 53 48 55
54 42 78 88 86 62 31 27 29 30 33 28 30 28 27 26 28 26 24 23 25 27 29 33 27 34 42 48 44 36 33 34 45 44 41 52 58 53 52 43 41 39 37 38 41 40 40 39 43 44 49 50 49 50
65 73 87 95 85 64 32 30 33 32 29 26 26 26 27 26 26 25 24 25 24 23 25 26 31 34 36 34 35 32 32 33 32 33 34 44 58 47 51 36 35 32 32 36 36 28 30 40 31 29 29 33 34 33
95 95 94 92 84 48 33 34 34 32 30 29 31 32 31 30 24 23 24 24 25 26 31 32 32 32 32 34 33 32 33 35 33 32 30 26 24 34 38 31 25 30 24 30 30 39 27 27 25 26 25 28 27 27
68 61 72 63 46 39 31 29 42 31 30 32 28 33 33 30 25 25 27 24 28 30 32 30 28 28 39 39 33 36 36 37 37 32 30 26 26 24 25 23 24 21 22 23 24 28 31 26 24 23 23 23 24 22
44 77 46 45 38 34 35 29 33 33 34 32 29 28 31 38 31 30 29 27 31 32 32 32 35 34 33 44 40 42 42 43 42 28 46 32 23 23 24 22 22 22 22 23 23 24 25 22 22 22 23 23 26 22
69 63 45 36 40 59 59 32 40 33 38 35 31 32 32 32 32 31 33 27 29 30 31 36 43 49 48 42 38 39 37 38 25 23 24 24 21 21 21 21 20 22 24 23 21 22 23 38 29 24 24 24 24 23
87 52 47 40 38 57 33 38 29 32 32 40 40 38 36 35 31 37 31 27 26 27 39 46 33 28 36 54 28 24 28 24 22 22 23 24 22 22 22 20 19 21 23 22 21 21 22 23 34 22 25 25 25 24
75 64 63 99 38 35 32 27 27 27 30 30 33 36 36 32 39 35 31 25 25 28 31 32 32 30 29 26 23 23 29 21 22 24 23 23 22 21 22 21 21 23 21 23 22 22 24 23 24 23 25 25 27 27
87 42 74 30 30 32 28 31 27 28 25 27 28 32 32 38 39 34 28 28 28 30 31 35 31 30 31 28 27 26 23 22 25 24 25 22 23 24 26 26 25 27 23 23 25 25 25 24 24 25 25 30 52 32
64 34 31 26 26 28 33 33 28 27 27 30 26 27 53 83 48 35 36 30 28 30 33 41 42 38 33 29 28 22 20 22 29 26 24 24 22 22 24 26 29 27 23 23 23 24 26 27 27 26 27 31 35 32
33 30 34 34 35 28 43 69 78 66 68 51 24 37 49 48 42 54 30 28 26 32 42 42 58 37 26 27 23 22 20 17 20 21 19 21 22 21 24 22 24 56 27 26 26 25 27 26 27 27 30 36 36 33
38 52 42 31 33 37 59 78 73 45 36 30 28 27 25 60 93 86 31 27 27 32 38 40 33 28 25 22 24 22 19 18 22 26 28 26 25 23 23 23 24 24 25 27 63 44 35 30 32 33 34 34 34 33
34 36 37 27 27 33 46 30 30 20 18 19 20 23 36 44 38 28 27 31 35 32 34 36 27 24 24 23 20 20 15 16 19 23 27 27 26 23 25 26 27 27 27 28 30 33 58 39 46 35 36 35 35 34
26 26 26 28 31 24 27 29 20 16 20 22 45 86 63 69 93 46 34 33 28 35 28 25 26 25 24 21 21 22 20 19 26 27 24 22 23 26 28 28 29 28 30 32 34 34 35 35 36 37 39 40 40 42
26 29 27 25 22 18 21 28 27 20 21 24 26 30 32 54 64 44 34 30 24 24 41 28 22 25 24 20 20 21 55 26 27 27 30 28 28 29 27 26 26 26 29 30 32 35 39 39 40 39 39 40 41 42
26 28 23 24 25 23 24 23 23 25 27 31 76 75 33 41 47 36 29 25 26 22 21 21 20 21 25 23 23 23 44 32 51 73 66 67 72 58 32 28 29 27 28 36 43 41 44 44 45 47 46 44 44 42

GFSWCAN_sfc_rhum_042.txt.gz
RH
88 90 88 87 87 86 86 85 85 84 84 83 82 83 83 84 86 96 98 97 98 99 88 74 79 96 94 96 99 91 91 85 93 96 96 99 99 98 95 94 94 92 95 97 81 80 97 53 56 66 55 40 40 41
89 90 88 87 86 86 86 85 85 86 84 83 82 85 86 88 88 89 100 98 99 99 92 85 80 83 90 88 98 94 95 89 87 97 95 84 99 94 79 93 59 92 96 97 91 91 60 51 81 58 50 50 54 48
90 88 88 86 86 87 85 85 85 85 85 86 86 86 86 88 88 90 99 99 98 99 97 90 87 80 76 79 75 100 86 92 93 86 97 94 90 82 97 79 63 58 55 74 79 52 60 57 60 52 56 58 52 50
88 87 86 86 84 86 85 85 84 86 87 88 87 86 86 87 88 90 97 94 96 96 99 79 65 78 68 70 76 81 90 83 87 87 97 98 95 93 92 83 84 78 71 88 82 69 68 55 52 55 54 57 54 50
88 86 87 88 89 88 83 83 86 88 89 88 86 87 86 86 88 90 90 89 90 97 98 90 84 83 84 81 78 80 88 94 98 99 99 100 94 94 93 93 83 82 98 98 94 75 78 80 68 63 62 61 60 57
86 86 88 90 90 86 86 87 88 89 91 90 90 89 87 86 86 97 98 85 79 94 96 98 73 87 88 89 90 95 97 98 98 99 100 98 92 99 100 99 92 93 88 88 93 83 83 75 72 68 69 66 63 60
86 88 90 91 89 88 90 90 90 92 93 92 89 83 83 82 94 96 93 95 88 94 97 91 96 83 86 92 97 97 95 99 98 100 100 100 98 99 100 100 96 92 87 86 76 88 88 86 86 67 64 60 60 56
87 89 91 92 90 89 88 88 91 93 91 89 86 83 87 85 88 93 91 83 88 94 89 99 93 87 88 97 99 97 99 98 99 100 99 100 100 100 100 97 89 89 84 83 77 76 91 85 79 76 71 70 71 66
87 90 92 93 93 90 90 92 92 93 90 87 86 85 95 96 97 95 76 75 95 92 98 99 100 98 92 97 99 97 98 99 99 100 100 100 100 100 100 98 92 95 92 88 74 76 82 89 92 79 82 80 76 73
89 91 92 93 94 94 95 94 94 89 87 86 93 98 97 96 77 81 94 94 96 98 98 100 98 98 91 91 92 97 96 94 100 98 98 100 100 90 89 88 94 93 92 85 91 94 94 94 95 91 77 80 81 72
90 92 93 94 94 95 95 94 92 86 85 94 97 96 97 83 95 98 97 98 96 97 98 97 98 97 94 96 93 90 96 90 98 96 89 100 100 90 84 89 87 93 90 90 87 89 91 94 95 95 95 96 95 97
90 92 94 94 94 95 94 93 91 97 97 88 89 93 96 98 96 96 89 89 98 97 93 98 98 99 98 88 96 92 98 93 95 91 92 100 96 88 89 86 79 90 89 86 87 88 88 89 91 92 94 94 94 94
90 92 94 94 94 95 94 92 92 92 94 95 93 91 95 88 72 78 92 76 79 75 69 74 90 97 98 96 96 97 75 84 80 92 100 93 93 88 89 85 74 72 89 87 84 83 85 87 86 91 94 93 91 93
91 93 94 94 95 94 92 89 90 94 95 95 93 67 74 64 58 58 62 61 59 58 55 71 88 90 94 92 76 75 87 78 87 86 96 96 90 89 87 82 78 63 61 88 87 85 84 85 88 88 89 90 91 94
91 93 94 94 89 90 89 90 90 97 94 96 66 68 57 54 53 49 51 53 51 53 58 72 82 80 70 66 75 71 74 84 90 97 94 94 88 89 84 76 79 66 61 71 86 84 82 85 89 90 88 88 87 90
92 93 85 85 90 89 91 92 96 94 94 77 55 52 53 52 53 52 54 54 52 57 61 62 67 67 70 75 70 86 90 95 89 88 92 90 83 83 76 71 76 67 64 63 83 82 82 85 86 89 89 90 88 88
94 87 88 91 92 90 89 83 90 86 57 51 50 52 55 56 56 58 55 50 58 54 60 58 59 66 61 64 76 72 82 82 85 86 88 87 80 78 73 69 72 60 63 62 65 80 77 72 81 83 82 83 81 81
93 81 82 90 96 92 86 79 68 50 51 52 59 58 60 56 54 56 53 59 52 58 57 60 55 59 69 69 74 73 78 74 72 69 74 76 80 77 75 77 52 59 55 56 63 63 63 66 71 65 53 46 52 70
88 89 91 94 94 95 84 64 59 64 52 48 60 56 56 60 53 58 55 56 58 56 58 59 59 68 74 75 72 75 77 73 73 71 75 60 54 55 65 54 44 64 55 49 52 52 52 48 58 54 48 47 48 51
92 92 93 94 95 93 81 66 68 63 59 55 61 59 58 56 59 55 55 52 56 57 56 58 64 70 72 72 72 74 72 73 74 70 64 61 51 49 54 58 52 55 58 50 45 52 46 45 51 50 47 49 51 53
89 79 89 94 94 90 85 68 64 64 61 63 63 61 61 62 66 53 57 65 58 61 65 66 66 66 69 70 70 73 74 70 69 71 69 68 53 49 51 48 47 46 49 55 51 51 51 50 55 53 50 49 50 48
90 81 81 88 79 73 77 71 59 62 68 64 64 66 65 63 76 76 70 62 67 64 66 69 68 67 74 72 68 64 62 56 64 74 64 57 47 50 50 50 48 51 50 51 50 48 48 50 48 47 48 50 54 52
87 88 86 77 72 77 61 70 63 66 67 58 66 59 72 77 95 85 60 66 72 69 64 64 66 65 66 68 75 70 64 66 63 58 51 50 50 52 52 48 48 47 50 48 53 47 50 57 51 46 52 50 53 57
87 84 84 82 64 66 63 70 72 69 70 64 64 73 76 97 97 92 91 93 91 72 69 67 70 74 81 82 78 72 60 51 47 50 52 48 49 53 55 49 48 48 51 50 50 52 50 50 52 49 54 56 60 63
94 90 83 92 75 61 54 53 65 66 65 67 62 67 94 95 93 93 95 92 80 69 70 67 65 77 71 68 61 56 48 46 52 51 52 51 49 50 53 50 47 46 48 48 50 49 52 53 54 54 54 58 56 57
99 77 67 59 62 61 70 75 80 83 86 81 77 87 96 95 86 90 94 91 89 78 92 78 74 75 72 70 56 57 50 48 48 50 48 48 45 46 56 54 51 47 51 52 50 48 47 52 52 51 55 56 66 54
90 65 63 69 68 77 88 93 88 89 85 79 74 81 87 91 93 89 94 91 95 94 92 81 64 69 70 61 50 46 45 48 46 47 45 47 46 47 50 49 49 54 53 48 50 49 48 49 52 53 55 53 53 56
74 67 61 66 77 82 86 90 87 78 74 85 87 92 85 86 89 92 91 87 82 85 84 77 68 65 58 50 40 47 48 48 40 48 45 41 42 46 46 51 53 65 52 51 50 49 51 54 57 58 57 60 60 58
72 62 58 62 74 89 89 85 81 78 82 82 93 94 96 97 94 93 86 93 82 86 83 84 79 69 47 40 37 35 33 35 40 43 48 49 48 48 48 49 52 54 50 46 60 55 44 46 48 55 56 61 62 60
60 57 60 56 58 67 71 86 82 77 85 93 95 98 98 98 96 92 88 64 64 54 38 35 31 30 34 37 42 43 42 42 44 53 58 58 57 55 50 49 51 54 58 60 56 55 60 54 54 51 52 56 59 60
56 50 54 54 52 48 59 60 71 81 75 95 94 95 96 93 91 84 60 56 42 37 36 39 40 40 40 47 50 50 55 53 49 48 52 54 54 57 54 52 52 55 63 58 60 57 56 60 58 55 56 56 56 58
58 58 66 61 56 53 47 56 69 77 79 92 95 94 95 93 87 69 56 48 47 47 51 44 43 46 44 45 45 47 57 50 52 55 57 62 62 58 57 55 53 59 64 66 77 74 59 60 63 63 62 60 60 62
53 53 55 53 50 40 46 48 53 83 83 88 90 90 90 73 65 65 61 52 47 45 46 46 49 45 46 45 47 52 56 59 72 79 77 75 72 66 61 61 58 63 68 72 71 66 57 58 64 64 62 61 59 60

GFSWCAN_sfc_rhum_045.txt.gz
RH
89 88 87 88 87 85 83 84 84 83 84 83 83 84 83 85 87 96 98 97 98 99 89 76 83 96 96 96 99 94 93 85 95 96 97 98 100 100 100 99 98 99 100 99 99 99 99 58 69 79 73 56 53 60
88 88 88 87 88 83 84 84 85 86 86 86 85 85 86 88 86 91 99 98 98 100 93 87 81 86 95 90 98 94 95 88 98 98 97 99 100 99 100 97 83 97 98 99 99 93 68 61 86 67 54 57 58 60
89 88 87 87 88 87 81 83 84 86 86 87 86 85 86 86 87 90 99 99 98 99 97 86 85 78 81 86 87 100 93 88 90 80 94 97 100 98 96 95 81 82 74 98 90 66 73 65 63 60 70 69 57 52
88 86 86 88 89 86 86 87 87 88 88 88 86 85 84 87 88 90 98 96 97 97 97 85 68 83 80 76 78 88 92 86 86 98 99 98 99 90 99 97 98 92 88 94 77 66 76 62 64 66 75 73 66 61
87 86 88 90 88 85 85 86 90 89 89 87 83 88 86 86 90 94 98 98 97 96 94 93 86 84 88 79 81 82 94 96 99 98 99 99 96 97 92 96 99 97 99 99 97 82 92 86 71 72 76 87 79 72
86 87 88 91 86 86 85 90 89 89 92 90 89 87 87 88 89 98 98 96 96 97 96 93 74 88 90 86 86 90 97 98 99 100 100 98 92 99 100 100 96 92 91 93 97 88 90 82 82 77 78 79 86 74
86 88 89 92 87 87 87 89 85 92 92 89 85 84 84 87 96 98 93 91 88 93 94 93 95 89 89 93 97 97 94 99 98 100 100 100 97 99 100 100 98 92 87 83 76 80 86 80 89 78 71 67 69 83
87 88 91 92 88 87 86 86 83 93 89 86 83 85 84 84 87 95 92 88 91 92 96 98 95 93 88 96 98 98 98 98 99 100 99 100 99 100 100 94 93 89 82 80 78 77 80 76 78 81 85 77 74 74
87 89 92 93 92 89 89 88 89 92 88 84 84 86 95 96 98 94 75 78 98 96 99 99 99 98 93 98 99 98 98 98 99 100 100 100 100 100 99 96 96 91 93 89 76 80 80 87 88 83 93 84 83 78
87 90 92 94 94 94 95 95 92 88 85 84 91 97 98 96 77 81 94 93 94 98 99 99 98 98 92 89 92 97 96 84 96 99 97 100 100 92 87 94 95 94 94 92 84 94 93 91 92 90 92 92 90 86
88 90 92 93 94 94 95 94 91 86 84 95 97 98 97 84 96 94 96 99 97 99 99 98 98 97 96 96 93 89 96 91 99 91 90 99 100 92 87 90 91 93 94 93 94 92 92 92 93 93 92 92 93 94
88 90 92 94 95 95 95 94 91 97 96 92 93 95 97 98 96 97 90 90 99 95 92 96 94 96 98 89 95 96 97 95 98 95 91 100 97 89 90 86 89 89 90 91 90 93 89 86 88 91 92 93 94 93
88 90 92 94 95 95 94 94 94 91 94 97 95 93 98 91 73 76 80 69 75 66 77 82 89 98 98 97 96 97 83 95 88 86 100 97 93 90 87 88 84 82 89 90 90 88 88 88 84 86 91 92 90 92
88 90 93 94 97 94 92 92 91 96 96 92 94 78 75 65 61 61 68 68 62 68 64 77 93 92 96 94 86 83 91 79 88 86 97 95 91 89 88 81 79 80 86 87 91 88 89 91 92 90 89 89 90 93
87 90 94 95 89 90 91 91 92 97 95 92 80 64 58 54 61 60 61 61 55 64 70 89 78 78 76 73 80 77 76 91 84 94 96 96 89 90 86 76 75 80 74 88 88 91 87 90 93 92 91 91 85 86
87 91 88 88 92 92 92 94 96 95 96 96 83 57 60 55 53 58 56 57 58 66 73 69 71 67 76 78 74 88 87 97 89 92 94 93 87 86 82 76 73 74 73 80 90 88 86 90 92 92 92 91 91 84
90 85 88 91 93 95 94 92 95 91 81 58 63 60 58 59 56 60 62 53 63 54 58 66 63 73 66 70 76 81 88 84 86 88 82 89 90 87 78 74 74 63 63 75 86 91 88 83 89 90 82 82 90 85
92 84 83 88 93 96 95 89 80 66 54 62 57 59 66 58 58 61 61 62 49 58 60 58 64 65 73 70 75 76 82 81 80 76 76 82 76 77 72 83 74 60 63 68 67 74 83 85 89 78 62 58 62 74
85 84 88 92 93 96 83 78 72 63 64 63 61 65 63 64 65 59 58 62 60 66 61 65 61 69 72 80 75 78 85 82 76 76 75 69 65 57 57 62 51 64 53 53 51 51 55 63 61 56 56 58 57 56
91 92 93 93 93 92 86 88 75 70 70 58 71 67 61 59 62 65 74 61 58 57 54 58 62 70 74 72 77 72 74 76 77 65 60 59 65 56 55 62 62 66 58 51 52 59 52 54 57 54 60 60 56 57
92 92 94 96 98 94 89 86 66 77 72 64 66 72 75 83 75 78 60 66 78 80 64 68 62 62 70 70 72 73 72 74 69 68 68 75 63 58 53 58 55 58 52 53 50 55 59 54 60 59 56 56 58 58
90 88 90 94 85 90 94 82 63 67 69 68 75 72 79 88 94 91 91 78 80 71 66 67 62 66 75 73 71 71 66 72 76 72 70 67 55 57 61 61 53 53 54 58 54 50 51 57 55 58 57 60 66 68
91 92 90 85 85 74 67 78 62 70 68 81 74 72 90 95 97 94 86 90 89 88 80 60 70 70 63 70 74 69 69 55 52 55 53 56 63 62 59 58 55 52 54 58 57 57 55 61 63 65 63 64 64 65
90 89 88 87 73 68 67 67 79 81 83 74 76 75 94 98 94 96 96 93 90 86 70 83 91 72 82 86 94 85 62 53 48 56 58 57 56 58 59 55 52 51 53 55 54 55 55 58 66 65 66 65 67 68
96 84 73 81 79 68 61 67 72 72 74 81 80 94 96 96 95 95 94 94 90 79 85 86 72 79 76 82 66 50 46 42 47 48 56 55 59 58 53 54 54 59 58 56 60 60 58 61 60 61 63 67 67 66
100 90 74 65 69 68 70 71 81 87 89 84 90 97 98 94 91 91 92 92 91 93 93 87 86 83 79 68 59 54 45 48 52 52 54 53 51 55 55 53 56 52 60 58 52 53 56 59 57 56 58 61 68 60
97 77 63 74 76 82 86 94 94 90 86 82 93 93 95 91 89 89 94 94 96 97 95 94 88 79 73 64 58 46 44 52 49 48 49 50 51 52 50 51 52 54 59 54 55 53 57 60 58 56 56 58 61 64
86 80 70 70 83 90 81 92 87 84 85 94 92 93 88 83 85 90 92 90 95 95 94 94 86 70 57 56 52 49 52 50 49 42 46 49 48 48 47 47 54 69 53 52 53 58 60 64 65 63 61 61 67 67
86 78 72 72 82 91 89 88 86 91 92 96 92 92 90 94 94 95 90 94 96 96 93 91 73 47 43 40 44 46 49 51 46 51 51 53 51 52 53 57 54 48 51 51 67 58 51 53 59 64 64 64 65 64
69 74 65 64 67 74 79 92 91 94 96 95 95 95 94 95 96 96 89 61 52 50 53 41 42 40 47 49 54 51 52 55 58 61 64 64 62 57 58 53 55 59 73 71 56 59 67 61 62 58 58 61 65 68
71 74 60 63 63 68 84 83 90 91 95 96 95 93 92 93 91 82 63 54 48 45 42 48 52 56 58 62 58 51 52 57 61 60 61 65 63 61 64 66 79 86 80 81 69 63 63 65 66 64 62 62 67 72
69 65 69 62 74 78 63 70 82 86 93 94 95 96 93 93 85 77 66 56 48 46 56 54 56 63 62 58 56 56 64 61 66 65 63 65 65 65 68 74 76 78 82 84 77 73 66 69 70 70 70 67 69 70
65 65 66 59 67 71 70 74 78 84 88 92 93 94 93 80 65 71 62 58 50 50 56 60 56 54 48 47 52 60 68 70 77 79 79 78 76 73 70 74 77 75 74 76 73 68 64 67 71 70 71 70 70 71

GFSWCAN_sfc_rhum_048.txt.gz
RH
89 87 87 86 85 84 83 83 84 87 87 85 85 85 84 85 86 96 98 97 98 99 90 76 80 96 97 96 99 94 91 91 96 99 99 99 99 100 100 97 88 95 99 96 98 99 100 76 73 78 74 66 63 63
88 88 86 87 86 84 86 83 87 87 87 86 85 86 86 86 86 90 99 98 98 100 94 86 84 82 90 96 98 95 95 90 92 100 100 100 100 99 100 98 97 99 98 99 99 99 92 86 86 76 75 77 72 63
88 87 87 88 87 84 84 85 88 88 88 87 87 85 84 86 88 88 99 99 99 99 97 92 89 83 86 87 90 97 95 92 92 94 99 100 100 100 99 99 98 95 88 99 98 92 87 78 68 68 74 82 69 64
87 87 87 88 86 84 83 86 89 88 88 85 82 82 84 86 89 89 97 99 98 98 96 84 69 87 76 83 81 88 95 86 90 93 97 99 100 98 99 99 99 97 94 98 98 90 82 71 76 74 77 76 77 70
87 87 88 89 86 84 85 88 89 87 87 87 87 87 84 85 91 94 98 97 95 95 95 93 86 90 84 77 86 90 94 96 98 98 98 99 97 98 99 99 99 97 98 100 98 89 98 90 82 86 87 85 79 81
86 87 89 91 87 85 87 88 88 89 92 90 87 86 87 88 90 98 98 97 97 96 97 95 88 95 90 80 84 92 97 99 98 98 99 95 90 99 100 100 96 92 92 94 98 88 86 80 76 76 86 84 78 76
86 88 89 92 88 86 86 88 86 89 91 88 86 83 86 88 97 97 91 90 93 96 97 98 96 94 93 95 97 97 95 99 98 100 100 99 97 99 100 100 96 93 86 83 81 81 89 87 90 78 80 83 82 79
87 88 90 92 88 87 86 86 84 91 89 85 85 85 84 86 88 95 94 91 90 96 97 98 94 96 92 98 99 98 98 98 99 100 99 100 99 100 100 94 92 87 86 81 77 79 82 81 80 82 79 83 83 82
86 87 90 92 90 89 88 90 89 93 89 84 85 86 94 96 98 96 76 84 94 96 99 98 99 99 90 98 98 99 98 98 98 100 100 100 100 100 98 96 94 90 93 89 75 79 82 84 85 85 85 90 90 89
86 88 89 92 93 89 91 95 94 91 87 85 92 96 98 97 79 81 92 93 96 97 98 100 99 98 90 90 94 97 96 83 99 98 97 100 100 89 88 93 96 92 93 94 83 92 88 89 90 89 90 88 92 95
86 88 89 91 92 90 93 95 93 86 83 95 97 98 97 87 97 95 97 98 96 95 98 99 98 98 96 94 95 89 94 90 94 87 91 98 98 90 86 89 92 92 90 93 95 91 87 91 92 91 90 90 91 92
87 87 89 91 92 91 95 95 92 96 96 94 94 95 97 96 93 94 87 88 99 95 92 95 94 96 98 92 96 96 96 92 97 95 80 95 95 88 89 83 86 91 88 88 90 93 91 90 89 87 90 91 91 91
86 87 88 91 94 95 94 94 96 89 93 97 95 94 98 90 68 72 73 70 74 65 72 84 88 98 98 97 97 97 83 96 89 82 99 95 91 88 86 85 78 83 87 86 87 88 89 90 91 94 94 92 89 91
86 87 88 91 96 93 90 92 95 97 97 92 94 89 74 65 66 64 68 68 63 69 69 81 95 96 98 93 91 82 91 82 87 87 97 92 87 87 88 83 76 79 81 83 85 86 88 91 92 92 94 94 93 92
86 87 89 97 93 91 93 92 94 98 95 89 86 71 68 59 62 62 66 68 64 71 76 96 81 83 82 75 83 79 77 89 90 92 93 95 90 90 87 82 77 76 74 87 85 86 83 88 93 95 92 93 93 92
87 89 92 91 91 95 93 95 96 97 96 96 95 74 67 59 54 59 62 61 62 72 81 73 72 67 77 81 73 86 83 94 84 94 94 90 88 88 86 83 78 76 72 71 89 86 84 84 87 90 92 92 87 88
89 90 90 89 93 94 95 95 96 93 86 76 68 70 61 61 58 58 64 60 68 56 62 69 64 73 69 73 77 86 86 83 88 86 80 84 88 90 88 86 80 69 67 74 86 88 88 84 84 87 88 84 82 87
94 80 80 88 90 96 99 98 90 83 73 69 67 56 66 61 60 62 67 67 52 62 67 55 67 64 67 71 73 72 80 81 82 79 75 81 79 71 64 66 79 65 71 71 69 76 82 85 84 74 64 64 65 68
84 84 86 90 91 94 85 86 85 67 65 71 72 73 70 64 84 89 81 69 65 65 68 67 62 67 68 78 71 72 78 81 72 75 78 74 70 70 64 66 67 66 60 59 55 55 60 68 60 57 58 56 53 56
90 92 94 94 93 88 85 91 82 75 71 68 76 72 68 82 91 90 92 87 75 72 65 78 63 63 66 64 71 69 75 76 75 63 62 65 72 63 60 63 66 66 54 57 57 61 57 55 56 59 54 56 55 58
92 95 96 95 97 91 91 92 76 80 81 75 72 82 86 96 95 89 83 77 75 91 88 75 67 68 80 75 68 68 71 73 72 67 70 72 73 61 61 62 61 68 53 51 50 55 58 54 57 55 53 58 60 61
87 90 94 95 88 95 96 94 77 74 76 67 80 91 93 94 96 95 96 88 88 80 82 87 90 95 95 77 66 73 73 74 74 71 71 72 57 59 59 60 56 56 51 50 51 51 53 52 53 55 55 60 65 63
91 95 92 90 89 80 73 83 63 72 71 80 86 83 95 94 95 95 94 96 91 92 95 92 94 94 88 77 70 66 72 78 58 55 58 62 63 62 56 55 55 54 52 56 62 56 54 66 65 58 61 60 58 61
91 91 89 89 83 78 76 68 83 83 81 77 83 89 94 98 97 95 94 95 89 91 84 86 89 80 81 86 93 90 76 61 55 57 59 59 54 58 57 53 54 54 58 58 56 55 54 58 67 61 61 59 62 63
96 73 74 78 80 74 65 72 77 77 78 86 85 91 95 97 95 93 94 93 94 91 86 95 94 88 76 80 72 70 59 45 44 50 57 59 53 54 53 53 56 59 58 55 58 57 61 60 60 59 57 59 63 61
98 90 76 70 74 68 70 69 80 83 87 84 94 97 97 95 92 88 93 89 92 94 96 97 90 85 79 81 63 55 49 53 53 46 53 56 49 48 50 49 48 50 55 54 56 57 58 59 57 57 56 56 69 63
97 82 77 82 76 84 92 97 95 92 88 83 92 92 96 88 86 85 93 93 96 96 97 97 94 86 76 64 64 60 52 54 52 49 52 51 46 54 50 60 60 52 56 52 54 53 57 56 54 54 55 58 58 61
88 87 74 76 87 94 84 93 89 88 84 95 91 86 84 79 80 87 90 90 96 97 95 93 67 61 47 50 50 59 62 58 54 51 46 53 53 55 78 62 59 76 51 53 56 60 60 59 57 55 56 60 60 60
89 92 84 76 83 92 91 87 87 91 94 94 86 87 88 93 91 93 92 97 98 97 88 74 65 55 49 54 52 55 60 56 53 55 55 56 56 70 60 57 68 86 55 56 69 66 58 60 61 60 60 60 59 59
70 83 74 71 75 76 80 92 91 97 97 95 95 95 92 93 96 94 68 57 63 76 57 53 54 54 55 51 51 49 57 60 59 58 59 60 58 59 57 60 78 70 75 70 57 56 70 59 59 54 56 58 60 62
81 85 70 72 68 79 89 94 94 95 96 96 94 90 88 89 87 68 61 60 54 51 52 56 60 58 51 48 48 50 55 61 63 62 62 62 64 66 66 69 77 85 83 75 63 57 56 58 58 58 58 62 64 66
81 72 72 68 77 84 75 76 84 88 93 93 94 94 91 92 83 76 69 52 50 50 62 58 57 59 60 56 56 59 70 61 61 58 58 60 65 70 74 74 73 71 72 74 72 69 62 62 61 61 61 62 62 64
72 74 72 76 80 74 73 76 78 85 89 90 93 92 86 83 75 66 68 61 49 50 55 58 57 53 54 56 59 63 68 63 73 82 82 82 82 78 71 70 68 66 63 63 62 61 62 63 64 65 65 65 65 63